Wetbulb
44.40 38.29 33.88 37.63 40.56 39.44 38.91 37.75 35.93 38.72 39.99 37.30 37.32 37.85 40.38 43.09 44.03 44.75 45.65 46.82 47.26 49.09 52.00 65.67 67.49 68.09 68.25 66.77 66.49 66.88 68.10 68.15 67.78 66.68 68.83 68.30 68.00 68.47 67.77 68.36 68.59 66.73 68.01 70.85
41.33 37.75 43.37 44.46 43.12 41.45 40.46 37.45 36.66 39.53 40.72 38.20 37.96 37.51 40.83 42.75 43.11 44.54 45.99 47.18 47.16 47.73 55.65 64.16 67.68 66.65 67.93 67.81 66.13 67.66 69.17 70.34 69.34 70.54 70.12 70.20 69.47 68.14 67.47 67.37 66.67 67.29 70.00 69.81
38.86 41.78 46.50 44.34 41.01 39.08 38.88 36.35 35.64 36.26 39.87 40.85 38.15 35.63 38.38 42.07 44.11 46.30 47.04 48.20 48.95 47.89 57.77 62.04 65.50 65.25 68.39 68.04 64.42 63.73 66.32 70.27 70.55 70.20 69.56 68.24 70.25 69.94 68.10 68.19 69.28 69.62 70.33 69.00
40.36 44.84 44.31 42.49 41.06 40.54 35.96 41.58 39.38 38.54 36.20 29.78 37.95 26.68 34.22 38.88 41.15 44.32 46.30 46.32 48.03 49.17 59.50 59.95 62.76 61.25 65.65 67.27 67.06 65.21 62.91 67.95 70.21 70.57 69.18 68.89 67.12 67.14 68.13 69.46 69.15 68.52 68.56 67.23
38.86 41.05 40.51 40.10 41.49 43.35 38.56 42.71 41.00 39.98 36.40 33.90 33.96 30.43 32.71 38.57 38.87 42.28 45.05 45.65 45.77 48.52 57.72 58.53 59.85 62.81 64.34 65.32 63.92 65.05 62.30 62.61 69.33 68.75 68.61 67.87 67.91 69.71 70.14 69.22 67.59 66.17 65.99 66.23
41.27 44.82 42.38 42.15 45.14 44.78 45.26 41.38 39.54 38.78 34.78 28.38 32.56 30.66 29.71 34.93 39.04 41.62 43.76 45.19 46.39 48.10 55.76 60.25 61.91 64.31 62.10 62.20 62.22 61.41 60.63 64.11 61.85 67.78 66.54 66.85 69.26 69.14 68.72 67.48 66.49 65.86 63.15 62.34
38.12 38.66 43.33 46.55 41.18 42.50 40.11 36.79 29.89 27.40 28.25 23.80 34.86 30.67 32.12 38.98 42.69 43.68 43.06 44.30 46.20 48.03 59.65 60.97 59.62 62.15 61.28 62.15 59.96 61.26 60.91 59.49 66.56 67.59 65.72 69.16 69.50 69.01 67.91 66.94 66.45 62.80 61.05 59.72
32.39 30.32 39.80 44.54 41.51 39.94 39.54 36.64 30.55 22.99 25.24 26.82 34.98 29.08 34.23 42.82 44.99 45.81 47.39 45.10 46.15 46.78 58.62 59.16 59.60 58.62 60.75 62.74 63.02 65.72 66.24 68.31 68.24 67.69 66.28 69.54 69.42 68.22 67.03 66.70 65.55 62.20 60.30 60.06
33.70 34.24 43.58 44.47 45.05 43.23 39.67 34.99 39.69 31.86 33.87 29.29 30.16 35.55 40.11 42.55 43.66 45.22 45.72 46.97 45.16 46.52 59.08 58.36 59.24 59.29 60.54 63.10 68.05 69.47 69.27 69.18 67.91 67.47 68.55 68.07 67.46 66.33 65.90 63.69 62.64 61.30 60.12 58.43
37.53 32.96 41.70 44.10 45.41 45.51 41.93 42.94 35.42 34.15 27.73 26.83 32.85 34.02 32.81 41.94 45.44 47.81 45.07 45.00 45.15 46.39 52.26 60.66 58.95 59.46 64.95 67.79 69.38 69.22 69.56 68.27 67.54 68.38 68.29 67.19 66.53 65.93 63.13 62.20 61.08 59.72 57.40 56.23
40.03 38.96 37.74 41.50 40.20 38.12 39.04 39.08 38.98 37.21 34.91 31.21 28.26 32.66 42.82 43.99 46.42 48.29 50.20 50.56 47.66 45.50 47.57 65.15 64.98 66.31 67.68 68.66 68.97 68.94 68.29 68.08 67.66 69.23 67.37 64.53 62.99 61.84 61.14 59.64 58.23 56.96 55.79 55.02
40.91 36.83 34.53 36.33 42.95 46.20 43.27 41.87 40.89 34.88 33.48 34.46 33.99 35.12 44.61 45.49 47.19 49.42 49.16 52.06 52.07 46.18 50.55 64.18 65.39 66.00 67.12 67.55 67.73 67.73 68.35 67.28 67.98 65.24 62.78 60.44 59.52 59.72 58.72 57.55 55.73 55.34 54.03 54.15
39.59 34.17 33.26 33.50 38.86 42.95 40.06 41.75 42.81 41.90 39.38 35.29 33.22 33.34 46.22 48.29 47.52 49.54 48.40 54.29 52.58 48.30 54.18 63.26 62.70 60.63 59.55 64.13 65.28 66.15 67.82 64.07 61.80 60.03 58.71 57.93 57.39 57.01 56.15 55.85 55.15 54.05 53.01 51.57
44.29 35.88 36.57 29.13 34.38 40.11 38.23 42.06 43.93 41.31 35.48 35.98 36.23 37.75 42.32 45.94 46.08 47.05 48.94 53.86 50.19 56.14 62.08 63.05 61.33 60.02 61.52 60.38 59.43 58.71 60.73 61.00 59.23 57.93 56.51 55.85 56.31 55.91 54.99 54.13 53.57 52.53 49.65 45.70
40.83 34.84 36.62 38.33 40.64 42.79 40.81 40.03 42.15 40.31 40.71 35.94 37.75 39.56 45.09 46.08 45.74 46.33 51.28 57.37 57.77 58.57 58.65 58.59 56.45 56.25 56.81 57.33 58.43 58.35 58.21 58.09 58.02 56.67 55.95 55.23 54.29 54.02 53.72 52.98 52.13 47.21 44.73 43.41
40.30 33.39 36.99 37.36 41.56 43.35 39.71 41.40 43.95 43.83 43.51 43.04 42.61 43.39 48.56 48.64 47.33 46.30 50.09 55.32 56.67 56.53 56.66 56.67 56.01 55.01 55.27 55.05 55.31 56.23 55.21 54.99 55.59 55.13 53.10 53.99 54.06 53.69 52.75 51.59 47.01 45.32 44.02 40.70
40.94 39.25 35.63 32.33 39.27 40.67 37.28 40.27 43.27 43.84 43.76 44.00 41.49 45.61 48.65 46.55 44.80 44.37 47.12 51.03 52.84 54.61 54.89 54.11 54.35 55.33 54.79 54.45 54.04 53.58 54.47 54.83 53.99 53.78 53.74 53.64 52.91 51.77 51.08 48.59 46.38 43.95 39.64 38.48
40.65 36.85 38.42 32.61 35.80 31.03 41.21 45.63 44.92 43.83 43.75 45.28 46.09 47.26 48.97 47.64 46.01 45.07 46.22 50.14 50.17 52.01 51.63 52.67 53.13 52.16 52.07 54.36 55.23 53.58 53.61 53.84 53.37 52.95 52.84 52.17 51.13 49.77 48.44 47.77 45.91 42.52 40.13 38.48
40.43 40.27 36.21 33.46 33.48 38.06 41.52 42.44 41.79 41.05 41.68 45.30 45.96 48.13 48.06 49.64 49.29 46.53 44.61 47.88 51.26 51.67 52.03 51.89 51.78 51.47 51.78 52.02 52.91 52.37 51.99 51.77 51.90 51.65 51.17 50.72 49.83 48.69 48.23 46.28 44.86 42.74 40.24 39.20
40.88 43.51 38.50 36.34 31.92 29.33 39.67 43.80 47.12 46.38 38.28 45.50 46.83 46.06 44.75 44.90 44.28 43.51 44.08 46.45 50.25 51.21 51.63 51.09 51.50 51.10 50.85 51.35 51.62 50.59 50.02 50.46 49.79 49.87 49.32 49.61 49.22 48.09 46.02 44.61 44.18 43.06 42.15 41.24
34.29 35.19 35.86 35.62 34.04 38.16 44.14 45.54 47.74 35.78 37.38 46.49 47.77 45.45 44.20 42.07 41.89 43.43 45.20 45.52 49.69 50.48 50.83 51.39 51.47 50.96 51.11 52.37 51.90 50.22 50.48 49.58 50.65 49.79 48.68 48.01 47.34 45.92 45.19 44.05 43.94 43.15 42.17 41.34
37.16 35.32 32.44 33.58 33.13 31.28 46.42 44.96 39.27 42.46 45.00 47.55 48.45 45.38 43.75 43.42 43.56 43.76 44.15 44.40 46.74 48.53 49.39 50.04 49.12 49.18 50.85 49.63 48.51 47.30 46.26 48.19 47.75 47.47 46.59 45.88 45.51 45.96 45.29 44.23 43.46 42.60 41.27 37.85
34.91 37.35 35.95 36.57 34.48 42.35 48.01 46.40 47.88 46.09 44.61 46.05 49.36 46.53 45.20 43.88 43.18 43.52 43.17 43.13 44.72 46.60 47.27 47.74 46.68 45.95 47.42 47.85 47.18 45.22 45.57 46.38 45.75 45.18 44.74 42.60 40.75 40.40 42.03 41.49 39.80 40.71 41.08 39.31
39.33 42.06 38.28 37.99 40.56 43.42 45.27 46.96 48.65 47.72 46.36 48.55 50.83 47.19 45.88 43.61 43.49 42.86 43.21 43.15 43.00 43.96 46.04 46.84 46.12 45.87 44.06 45.86 45.72 45.37 46.34 44.22 41.16 37.99 37.15 37.19 36.30 35.65 36.14 35.62 35.58 35.91 38.82 35.63
37.94 39.66 37.59 38.40 42.44 43.62 45.57 46.12 47.20 46.14 47.90 48.75 48.00 46.59 45.01 44.18 43.56 43.32 42.62 43.23 43.07 43.88 43.97 44.57 43.56 43.19 43.41 44.72 44.50 43.95 42.74 41.11 38.34 37.12 36.68 35.89 35.40 34.95 33.79 33.78 34.75 34.34 31.63 33.80
39.85 38.00 36.88 37.44 42.61 41.60 42.37 45.56 48.31 45.90 45.09 47.51 46.82 44.56 44.86 44.08 43.53 43.95 43.24 43.87 43.31 43.74 44.06 42.90 43.23 43.50 43.09 43.74 43.53 43.08 42.50 41.10 38.96 37.09 36.50 35.52 34.54 33.92 33.54 32.81 31.12 35.55 35.42 35.52
MSLP
1010.67 1011.23 1011.35 1011.06 1011.16 1011.10 1011.04 1010.45 1009.27 1008.06 1007.09 1006.61 1005.74 1004.71 1003.42 1002.90 1002.01 1001.19 1001.23 1000.53 1000.29 999.96 999.55 1000.87 1002.34 1003.21 1001.45 1001.46 1001.31 1001.61 1002.63 1003.97 1004.84 1005.55 1006.22 1007.00 1006.96 1007.28 1008.06 1008.37 1008.60 1009.33 1009.88 1010.12
1011.09 1010.42 1009.52 1009.59 1009.90 1010.44 1010.50 1010.04 1008.67 1007.50 1006.98 1006.63 1005.58 1004.33 1003.37 1002.68 1001.47 1000.81 1000.67 1000.21 1000.01 999.81 999.53 1000.16 1001.06 1001.97 1000.68 1002.89 1002.76 1002.92 1003.07 1003.82 1004.65 1005.21 1005.60 1006.14 1006.55 1006.88 1007.58 1008.31 1008.71 1009.18 1009.66 1010.06
1010.81 1009.25 1008.72 1009.20 1009.35 1009.83 1009.87 1009.87 1008.83 1008.24 1007.30 1006.69 1005.91 1004.42 1003.18 1001.95 1000.97 1000.10 999.54 999.10 999.03 999.50 999.54 1000.29 1001.35 1003.14 1000.64 1002.77 1004.15 1004.24 1005.30 1004.43 1004.55 1005.15 1005.71 1006.30 1006.51 1006.84 1007.88 1008.56 1009.12 1009.74 1009.74 1010.33
1010.21 1008.65 1008.70 1008.55 1008.57 1009.50 1009.24 1008.30 1008.35 1007.88 1007.75 1006.76 1005.71 1004.17 1002.99 1001.93 1000.43 999.65 998.69 998.35 998.03 998.67 999.22 999.52 1000.77 1002.18 1001.77 1002.20 1003.68 1004.97 1006.51 1006.78 1004.94 1004.75 1005.13 1005.79 1006.19 1007.13 1007.97 1008.60 1009.52 1010.40 1010.31 1010.74
1009.60 1008.59 1008.64 1008.11 1007.60 1008.07 1007.64 1007.58 1007.68 1007.62 1007.44 1007.00 1005.47 1005.05 1001.85 1001.44 1000.13 998.77 997.61 997.26 997.27 997.81 998.45 999.16 999.90 1000.27 1001.62 1002.01 1001.55 1004.73 1006.81 1006.12 1006.91 1004.64 1005.12 1005.43 1006.35 1007.13 1008.37 1009.49 1010.09 1010.94 1011.55 1011.30
1009.57 1008.71 1007.97 1007.50 1006.69 1006.97 1007.07 1007.77 1007.79 1007.61 1007.69 1006.73 1004.49 1004.45 1001.23 999.92 998.73 997.81 996.98 996.56 996.43 997.23 997.75 998.33 999.05 999.46 1001.14 1001.91 1002.41 1003.54 1005.05 1004.21 1005.73 1005.04 1004.98 1005.83 1006.58 1007.70 1008.79 1009.85 1010.85 1011.69 1012.13 1012.38
1009.82 1008.37 1007.36 1007.09 1006.79 1006.99 1007.40 1007.92 1007.97 1007.75 1006.93 1005.77 1003.73 1003.80 1000.26 998.76 998.11 997.43 996.77 996.37 995.89 996.60 996.98 997.97 999.13 999.67 1000.52 1001.49 1002.48 1003.81 1004.31 1004.31 1005.65 1005.09 1005.38 1005.73 1006.44 1007.58 1008.74 1009.83 1010.69 1011.59 1012.46 1012.83
1011.61 1009.46 1007.89 1007.09 1007.18 1006.90 1007.61 1008.53 1008.47 1008.08 1006.88 1005.72 1004.27 1002.40 999.16 998.21 997.17 996.71 996.28 996.18 995.66 996.45 996.73 997.61 998.01 998.81 999.75 1000.55 1001.75 1002.61 1003.98 1005.09 1005.00 1004.88 1005.03 1005.87 1006.92 1007.67 1008.84 1009.65 1010.61 1011.95 1012.89 1013.21
1012.63 1010.24 1007.85 1007.22 1006.51 1006.64 1007.75 1008.08 1008.34 1008.11 1006.75 1005.88 1003.74 1001.50 999.00 997.55 996.99 996.50 996.03 996.08 995.73 995.54 996.46 996.93 997.44 998.01 999.17 999.95 1000.47 1001.55 1002.37 1003.41 1003.54 1003.91 1004.59 1005.95 1007.08 1007.87 1008.76 1010.33 1011.30 1012.12 1012.91 1013.46
1012.62 1011.24 1008.07 1006.30 1006.45 1006.54 1006.82 1007.37 1008.13 1007.99 1006.77 1005.43 1003.06 1001.57 1000.78 999.75 998.93 998.05 996.95 995.97 995.42 995.37 995.71 996.55 997.33 997.82 998.96 999.20 1000.00 1000.99 1001.71 1002.41 1003.10 1003.88 1005.01 1006.20 1007.13 1008.09 1009.15 1010.55 1011.59 1012.45 1013.27 1014.04
1012.29 1012.25 1008.92 1007.62 1006.31 1006.16 1006.65 1006.90 1007.40 1007.58 1006.77 1006.08 1004.49 1002.29 1001.89 1000.87 1000.10 998.98 997.89 996.65 996.05 995.52 995.77 996.15 996.70 997.08 997.41 999.26 1000.23 1000.69 1001.76 1002.36 1003.09 1003.97 1005.34 1006.85 1008.01 1009.18 1010.32 1011.20 1012.11 1012.91 1013.75 1014.38
1012.37 1012.12 1010.06 1007.69 1006.23 1005.79 1005.86 1006.20 1006.73 1006.82 1006.58 1006.10 1004.97 1002.67 1001.43 1001.14 999.93 998.96 997.57 996.23 995.32 995.23 995.60 995.72 996.55 997.37 998.27 998.86 999.72 1000.69 1001.46 1002.40 1003.29 1004.68 1006.22 1007.85 1008.95 1009.68 1010.69 1011.85 1012.59 1013.04 1013.85 1014.64
1012.27 1012.19 1010.74 1007.65 1006.65 1005.91 1006.31 1005.95 1005.86 1005.89 1005.99 1005.57 1004.84 1002.99 1002.23 1001.63 1000.16 999.09 998.05 995.95 994.51 994.64 995.78 996.03 997.07 998.43 998.99 999.73 1000.16 1001.12 1001.82 1003.24 1004.22 1005.37 1006.99 1008.56 1009.79 1010.73 1011.39 1011.99 1012.91 1013.99 1014.62 1015.15
1012.29 1012.42 1011.99 1011.00 1009.25 1008.00 1006.88 1005.92 1004.11 1005.32 1005.62 1005.31 1004.58 1003.72 1002.47 1001.51 1000.56 1000.13 998.52 995.78 994.43 995.13 996.09 996.57 998.09 999.55 1000.42 1001.52 1001.89 1002.57 1004.22 1004.41 1004.77 1006.62 1007.63 1008.63 1009.85 1010.85 1011.71 1012.71 1013.96 1015.03 1015.83 1016.21
1012.02 1012.22 1011.26 1010.28 1009.16 1007.96 1007.47 1006.47 1005.62 1005.47 1005.21 1004.90 1004.85 1003.73 1003.21 1003.31 1003.54 1002.20 1000.15 997.30 996.73 997.48 997.74 998.33 999.57 1000.63 1001.78 1002.78 1003.44 1003.85 1005.37 1005.49 1004.93 1007.27 1008.61 1009.43 1010.07 1010.93 1011.62 1013.61 1014.78 1016.06 1016.45 1017.12
1011.71 1011.97 1011.19 1009.66 1008.44 1008.01 1007.66 1006.29 1006.39 1005.74 1005.45 1004.33 1004.73 1003.44 1003.95 1004.08 1003.81 1002.79 1001.29 999.86 999.56 999.84 1000.25 1000.42 1001.12 1001.73 1002.76 1003.83 1004.43 1005.32 1006.45 1006.55 1006.94 1009.51 1008.47 1009.44 1011.11 1010.85 1012.24 1014.15 1015.93 1017.10 1017.32 1017.91
1011.76 1011.66 1011.31 1009.51 1007.75 1006.97 1007.42 1007.43 1006.68 1006.35 1006.29 1005.55 1004.34 1004.67 1004.65 1003.56 1004.94 1004.94 1003.50 1002.88 1002.39 1001.73 1002.09 1002.15 1002.64 1003.39 1004.10 1004.54 1004.80 1006.22 1007.27 1007.46 1008.99 1009.35 1010.20 1009.82 1011.26 1011.98 1014.25 1015.69 1016.66 1017.53 1018.15 1018.96
1011.61 1011.88 1011.43 1010.43 1008.73 1008.17 1008.41 1007.94 1007.50 1007.19 1007.01 1006.63 1006.02 1005.51 1005.46 1005.65 1006.28 1006.36 1005.74 1004.54 1003.97 1003.66 1003.65 1004.10 1004.26 1004.31 1005.15 1006.07 1005.79 1006.28 1008.08 1009.27 1008.75 1010.55 1011.34 1011.06 1011.90 1013.85 1015.69 1016.49 1017.13 1018.05 1018.88 1019.63
1011.53 1011.64 1011.61 1011.36 1010.29 1009.42 1008.33 1008.40 1008.05 1008.03 1007.93 1008.00 1007.59 1006.79 1006.51 1006.19 1006.58 1006.35 1005.84 1005.35 1004.58 1005.21 1005.42 1005.63 1006.27 1005.40 1006.57 1006.22 1006.95 1007.03 1008.19 1009.27 1010.50 1011.75 1012.13 1012.57 1013.63 1014.61 1015.79 1016.97 1017.76 1018.73 1019.52 1020.45
1011.35 1011.30 1011.89 1011.58 1011.05 1010.09 1009.37 1008.22 1007.35 1007.41 1008.12 1008.78 1008.36 1008.08 1007.65 1007.50 1007.61 1008.01 1008.38 1007.39 1005.74 1006.06 1006.32 1006.79 1007.14 1007.10 1006.92 1006.99 1008.15 1008.73 1009.95 1010.55 1011.28 1012.05 1012.81 1013.61 1013.79 1014.99 1016.26 1017.44 1018.70 1019.33 1019.85 1020.75
1012.18 1011.97 1011.75 1011.48 1011.24 1010.64 1009.39 1008.35 1007.25 1008.06 1009.55 1008.55 1009.09 1008.89 1008.77 1008.67 1009.29 1009.22 1008.94 1007.93 1006.95 1007.16 1007.29 1007.35 1007.67 1008.13 1008.55 1009.01 1009.37 1009.92 1010.34 1010.81 1011.85 1012.60 1013.48 1014.11 1015.32 1016.14 1016.86 1018.03 1018.40 1019.42 1020.52 1021.18
1012.39 1012.50 1012.07 1011.41 1010.94 1011.03 1010.22 1009.09 1009.28 1009.91 1009.50 1009.26 1008.99 1009.45 1009.45 1009.79 1010.01 1009.69 1009.47 1009.21 1008.62 1008.14 1008.89 1009.01 1009.40 1009.49 1009.47 1009.69 1009.79 1010.75 1011.56 1012.51 1012.96 1013.47 1014.49 1015.53 1016.35 1017.10 1018.15 1018.49 1019.31 1020.13 1020.82 1021.60
1012.34 1012.11 1011.97 1011.75 1011.08 1010.55 1010.26 1009.98 1009.31 1009.47 1009.70 1009.16 1009.10 1009.54 1009.65 1010.02 1010.57 1010.75 1010.68 1010.43 1010.32 1010.22 1010.41 1010.56 1010.59 1011.04 1011.49 1011.74 1010.90 1011.50 1013.17 1013.41 1014.09 1015.02 1016.24 1017.14 1017.89 1018.57 1018.73 1019.36 1019.90 1020.72 1021.44 1022.19
1011.81 1010.97 1010.96 1010.71 1010.35 1009.96 1009.73 1009.69 1009.70 1009.49 1009.39 1009.61 1008.69 1009.47 1009.95 1010.25 1010.69 1011.21 1011.59 1011.49 1011.51 1011.58 1011.41 1011.49 1011.63 1011.80 1012.03 1012.53 1012.69 1012.95 1013.67 1014.39 1015.39 1016.26 1017.11 1018.24 1018.66 1018.92 1019.71 1020.09 1020.76 1020.81 1022.12 1022.47
1011.90 1011.13 1010.46 1009.97 1009.39 1009.24 1009.31 1009.35 1009.43 1009.44 1009.23 1009.09 1009.62 1009.97 1010.33 1010.60 1011.11 1011.43 1011.81 1012.05 1012.13 1012.12 1012.29 1012.37 1012.46 1012.65 1013.17 1013.27 1013.38 1013.83 1014.53 1015.01 1016.03 1017.09 1018.00 1018.57 1019.44 1019.88 1020.50 1021.22 1021.62 1021.78 1022.42 1022.61
1010.55 1010.18 1009.94 1009.40 1009.13 1009.24 1009.21 1009.13 1009.12 1009.33 1009.53 1009.63 1009.93 1010.45 1010.71 1010.98 1011.16 1011.73 1012.19 1012.41 1012.65 1012.69 1012.79 1012.80 1013.12 1013.33 1013.56 1013.70 1014.07 1014.78 1015.22 1015.64 1016.61 1017.70 1018.81 1019.39 1019.97 1020.83 1021.50 1021.84 1022.76 1022.60 1022.77 1023.46
Wind_Speed
5 2 8 14 13 14 11 16 17 14 8 5 16 17 20 14 16 16 11 14 8 10 9 13 10 12 5 10 17 20 20 17 13 11 10 8 8 8 4 7 9 8 7 7
5 12 16 14 17 10 12 18 24 17 6 5 15 21 18 14 18 19 15 17 9 6 6 7 11 3 14 3 5 7 16 15 13 10 9 7 7 4 4 3 5 7 8 7
9 14 15 6 1 5 10 11 16 18 11 11 12 19 20 16 15 18 17 17 12 10 9 7 18 15 17 10 6 10 10 11 12 9 7 4 5 5 4 4 6 4 9 8
10 10 9 13 13 11 14 11 18 18 8 10 5 14 8 7 17 16 16 13 12 10 10 8 9 10 14 19 2 5 10 14 7 12 9 12 4 6 2 7 6 5 6 8
12 17 12 14 12 10 15 13 14 16 11 4 13 5 7 9 13 18 15 14 10 10 15 14 11 15 14 16 26 9 13 15 17 10 11 10 9 8 7 7 11 9 7 9
20 14 10 9 13 14 2 6 6 5 4 9 16 10 8 9 16 9 10 13 12 9 15 18 17 16 15 16 21 24 17 21 19 8 11 11 14 13 10 9 9 7 6 6
14 5 5 2 6 4 4 3 3 3 3 6 2 9 15 5 9 10 9 9 11 11 15 16 18 13 15 20 18 20 24 25 22 11 11 14 14 16 15 12 9 10 7 6
7 11 6 11 5 5 4 3 3 6 3 4 4 7 10 11 19 15 15 8 9 10 15 19 21 20 18 19 22 20 22 22 14 14 12 11 11 9 9 9 9 8 8 7
6 8 9 14 12 7 4 5 3 5 3 4 4 7 10 7 9 9 9 6 10 8 17 19 20 20 18 20 22 21 18 14 13 13 13 12 10 11 11 12 11 9 10 9
4 10 9 14 3 3 4 6 2 2 4 4 4 3 3 14 17 16 13 8 9 7 10 18 18 18 16 16 16 18 18 17 12 14 13 12 12 13 14 13 13 11 11 11
4 5 13 10 3 10 2 2 1 4 2 4 6 3 6 12 15 18 16 14 11 8 9 19 20 16 15 16 15 15 15 17 16 15 14 14 13 15 14 13 12 13 12 11
2 3 9 18 16 8 4 3 2 3 3 3 4 6 14 12 16 17 19 16 13 8 12 16 15 16 14 17 17 16 14 15 16 15 16 15 15 15 14 14 14 13 13 11
3 2 9 13 5 4 6 17 7 6 1 3 5 6 15 14 18 20 21 22 13 9 11 13 11 11 7 5 8 6 11 15 16 18 17 16 15 14 15 15 14 12 12 12
4 3 6 5 14 16 15 20 2 4 3 7 4 12 15 21 24 25 25 8 9 11 11 11 11 14 13 12 16 17 12 9 18 17 17 18 17 17 16 15 13 12 12 12
6 4 6 13 17 9 13 20 18 10 5 2 7 8 13 15 16 18 16 16 20 15 14 15 16 13 16 14 13 17 13 16 14 17 16 16 16 17 19 15 14 12 13 11
3 3 6 16 5 11 14 16 10 6 13 4 10 7 11 8 15 19 18 16 18 15 15 16 16 17 17 18 15 13 13 16 19 6 17 16 17 18 17 15 14 13 12 12
4 3 6 7 15 7 4 8 10 11 17 13 12 10 11 18 14 13 14 15 14 13 13 15 14 13 13 16 18 15 12 16 16 16 12 16 17 18 15 15 14 13 13 11
4 5 2 7 11 5 4 11 14 17 15 17 17 19 10 6 5 5 9 10 13 15 15 11 12 13 13 8 12 20 15 10 20 13 13 15 17 17 14 14 14 13 10 11
3 2 4 3 5 5 2 9 12 8 6 15 16 17 13 8 5 6 18 12 14 13 12 11 10 14 10 12 9 17 15 13 16 15 14 15 16 17 15 14 12 11 11 9
5 3 3 2 4 3 5 14 16 2 3 14 15 11 13 8 2 3 10 11 12 9 8 11 13 13 13 12 13 17 14 14 15 14 15 14 15 15 15 14 12 7 9 10
5 3 2 2 2 1 10 16 12 5 8 17 12 5 8 5 3 5 7 12 11 10 12 10 12 11 10 10 13 16 14 17 14 14 14 15 13 13 12 10 10 10 10 9
2 4 2 3 1 2 5 8 6 6 6 9 11 4 4 4 3 6 8 9 10 12 11 10 11 10 9 12 14 17 15 14 15 16 16 14 11 9 8 11 9 10 11 10
3 6 3 3 6 5 4 3 7 4 5 6 6 7 7 5 3 3 5 7 9 8 9 10 11 13 11 9 14 18 12 14 16 16 14 11 10 8 8 9 8 7 8 7
5 4 3 5 2 3 3 3 5 4 5 7 1 9 6 6 5 5 4 4 6 6 8 9 11 11 12 11 13 16 14 14 15 14 12 9 10 11 10 7 5 8 7 6
6 4 5 5 5 5 3 1 3 1 5 7 8 6 7 7 6 5 3 5 5 7 7 8 9 10 10 11 12 13 13 15 15 13 11 11 9 10 10 9 5 7 4 6
6 7 4 5 4 4 6 3 4 2 1 4 8 6 6 6 6 7 4 3 4 6 7 10 10 10 10 10 12 12 12 14 14 13 9 8 9 8 8 9 8 15 11 11
Wind_Direction
288 266 231 242 244 254 260 275 274 288 282 313 283 284 289 300 293 290 288 262 237 256 264 144 168 195 120 173 163 159 156 169 168 169 170 177 173 150 145 164 167 160 146 138
323 251 251 250 240 262 295 297 282 287 292 293 281 283 284 280 279 281 270 261 225 233 234 158 119 170 94 48 146 149 159 155 169 165 161 163 163 112 117 139 103 131 138 132
235 258 280 320 52 238 241 261 280 283 295 256 281 283 284 266 273 277 265 249 225 192 210 179 150 200 133 104 37 32 351 175 158 151 123 89 96 82 90 100 118 129 133 123
257 254 311 304 268 203 260 261 250 263 277 264 176 271 259 271 270 275 269 250 214 180 186 197 167 173 167 144 61 23 332 304 167 154 148 157 138 129 104 122 103 84 90 103
265 299 298 277 255 177 240 246 265 258 237 269 262 248 252 219 255 260 261 242 211 183 175 184 185 179 153 170 144 217 267 288 277 150 156 139 125 108 110 102 100 98 79 86
265 290 266 243 273 206 255 229 235 259 235 246 245 197 259 233 232 256 247 223 204 173 179 184 177 185 157 164 174 180 170 257 263 194 133 132 125 124 122 119 119 110 97 93
316 292 284 248 330 54 77 48 283 269 230 244 269 187 246 247 262 249 271 244 215 151 169 172 165 181 162 172 164 163 175 208 224 168 135 133 134 139 142 145 139 123 114 98
334 327 6 335 282 285 78 149 262 288 271 301 272 241 253 228 252 257 261 261 225 152 169 173 179 173 179 177 168 175 187 195 173 156 125 126 135 140 139 136 121 113 113 108
334 271 303 301 316 158 143 212 196 260 234 272 231 277 307 246 284 265 261 265 234 171 177 179 184 177 174 173 181 179 170 174 165 140 128 130 124 125 126 110 111 117 118 107
241 285 282 319 172 86 170 142 262 225 292 288 286 266 53 7 350 334 314 273 242 187 161 183 189 188 173 170 168 173 170 167 146 128 128 137 138 129 115 121 121 119 108 111
279 208 294 308 306 304 159 215 249 286 290 333 314 333 14 3 349 336 325 295 275 198 160 176 176 185 167 162 165 163 162 156 146 135 130 119 110 111 117 115 117 115 115 109
227 297 285 294 289 331 103 311 246 282 353 256 229 274 19 346 346 345 327 308 261 179 165 181 162 158 169 162 153 165 159 152 133 121 116 112 117 118 118 122 116 111 109 104
315 329 311 334 15 6 3 304 246 219 327 255 307 301 344 350 355 353 337 315 250 153 146 164 142 149 117 113 91 110 129 121 122 115 115 114 112 118 117 109 105 105 105 95
176 208 227 240 274 300 309 328 340 157 14 308 304 311 344 7 3 344 329 338 219 130 114 140 99 95 91 92 98 90 87 120 120 115 117 117 124 120 113 108 107 104 98 91
144 257 252 263 283 317 21 21 24 66 278 308 321 335 14 23 352 333 335 53 73 78 88 103 98 95 99 95 98 103 116 97 72 116 119 122 116 110 109 108 101 100 90 90
302 275 303 306 268 52 57 55 52 1 359 326 18 37 16 36 11 356 14 45 75 83 82 87 90 95 94 95 87 90 91 96 99 333 86 119 124 98 102 103 102 98 91 81
280 338 328 285 313 327 11 357 345 358 8 351 0 357 354 42 355 337 6 43 54 69 84 88 84 93 102 111 104 85 84 91 106 114 128 111 107 101 107 108 108 98 94 94
285 323 261 292 331 50 157 27 329 335 27 13 7 359 340 63 248 332 355 62 35 51 43 66 92 91 74 72 118 114 108 122 106 111 112 104 106 113 115 108 103 101 99 93
134 271 318 338 332 292 283 347 330 339 39 18 358 346 358 264 250 344 4 360 71 74 69 57 76 94 103 103 103 101 111 114 114 121 115 113 120 119 110 101 108 109 113 105
353 165 141 328 308 302 307 317 325 201 198 11 356 358 347 333 348 332 353 351 76 79 62 100 96 93 87 94 111 110 115 118 114 116 115 115 101 106 111 115 124 116 108 105
339 353 217 248 228 328 306 320 325 41 324 330 353 338 9 36 336 323 351 25 50 74 74 76 87 93 98 110 117 104 116 107 113 108 103 100 101 108 113 121 113 114 109 104
299 327 304 349 14 350 308 331 55 256 289 311 335 139 100 98 43 1 17 39 42 64 74 83 89 86 93 98 109 101 93 106 107 100 98 101 106 113 121 122 116 114 111 102
289 184 220 183 218 216 193 218 279 255 262 307 328 143 144 133 105 45 29 41 61 60 95 96 96 98 88 94 107 104 112 107 104 103 101 89 87 86 84 95 98 93 110 110
289 275 247 9 210 220 199 202 166 294 312 315 317 134 138 131 120 104 83 66 71 69 95 100 103 98 92 99 101 106 108 102 102 97 90 91 89 83 75 71 78 96 119 109
218 323 276 277 301 358 114 244 188 168 341 42 85 112 135 138 133 124 110 101 95 96 89 98 103 102 102 109 104 104 111 111 104 100 99 92 91 91 82 64 55 95 55 122
182 220 203 239 235 194 249 248 183 144 50 120 135 131 142 148 134 125 119 99 115 120 123 110 106 106 104 102 103 107 111 111 115 113 112 109 104 102 102 103 87 48 74 96